Torna al catalogo

STARLINK-36601

AttivoComunicazioniVLEO
NORAD 67618·PAYLOAD·🇺🇸 United States

Lanciato Jan 30, 2026 da Cape Canaveral Space Force Station

Loading…

Prossimi Passaggi (prossime 24 ore)

TLE

AggiornatoSource: CelesTrak SupGP

Epoca: Sep 14, 2026, 23:03 UTC

1 67618C 26020B   26257.96090278 -.00028173  00000+0 -10206-2 0  2571
2 67618  42.9991 150.9845 0001375 271.2753 275.6900 15.27587796    16

Traccia STARLINK-36601 in tempo reale con AllMySat

Download on the App Store